Location: *
(0.1100°N, 5.5000°E)
Time: 08:19:23
(UTC+00:00)

Tiangong - Visible Passes

Search period start: 26 March 2023 00:00
Search period end: 05 April 2023 00:00
Orbit: 376 x 380 km, 41.5° (Epoch: 25 March)

Date Brightness Start Highest point End Pass type
(mag) Time Alt. Az. Time Alt. Az. Time Alt. Az.
26 Mar -1.0 19:09:11 10° NW 19:11:14 38° NW 19:11:14 38° NW visible
27 Mar -0.9 18:07:41 10° NNW 18:10:18 25° NE 18:12:55 10° ESE visible
28 Mar -0.8 18:41:49 10° WNW 18:44:42 35° SW 18:46:55 15° SSE visible
30 Mar -0.6 05:08:36 10° SSW 05:11:28 33° SE 05:14:19 10° ENE visible
30 Mar 0.7 18:14:45 10° W 18:16:44 16° SW 18:18:43 10° S visible
31 Mar 0.7 04:08:14 11° SSE 04:09:06 12° SE 04:10:30 10° ESE visible
01 Apr -2.3 04:41:43 29° SW 04:43:10 89° NW 04:46:15 10° NE visible
02 Apr 1.3 03:42:57 12° E 03:42:57 12° E 03:43:18 10° ENE visible
02 Apr 0.1 05:15:47 10° WNW 05:17:07 12° NW 05:18:26 10° NNW visible
03 Apr 0.0 04:16:03 19° N 04:16:03 19° N 04:17:16 10° NNE visible
